Location: Bouchavesnes-Bergen
(49.9859°N, 2.9203°E)
Time: 00:59:09
(UTC+00:00)

Envisat - Pass Details

Date: 11 February 2023
Orbit: 763 x 765 km, 98.2° (Epoch: 28 March)

Event Time Altitude Azimuth Distance (km) Brightness Sun altitude
Rises 05:41:37 0° 3° (N) 3,246 6.2 -14.1°
Reaches altitude 10° 05:44:36 10° 345° (NNW) 2,314 5.3 -13.6°
Maximum altitude 05:47:55 18° 304° (NW) 1,821 4.4 -13.1°
Enters shadow 05:48:43 17° 292° (WNW) 1,850 4.4 -13.0°
